Location: *
(50.3440°N, 18.6237°E)
Time: 18:14:59
(UTC+00:00)

USA 238 - Pass Details

Date: 30 November 2020
Orbit: 997 x 1215 km, 63.4° (Epoch: 11 January)

Event Time Altitude Azimuth Distance (km) Brightness Sun altitude
Rises 17:47:40 0° 210° (SSW) 3,724 6.9 -28.2°
Reaches altitude 10° 17:50:13 10° 207° (SSW) 2,792 6.2 -28.6°
Enters shadow 17:55:58 62° 164° (SSE) 1,160 3.7 -29.5°
